sat.trackr.live / text

‹ back to catalog

STARLINK-32851

NORAD 62810 · 2025-018E

PAYLOAD ACTIVE UNKNOWN

§ Identity

Operator
Country
US
Launch date
2025-01-24
Launch site
AFWTR
Launch vehicle
Mass (kg)
RCS (m²)

Purposes: comms

External: N2YO · Heavens-Above · Gunter

§ Orbital elements

Epoch: 2026-09-21T20:28:08.842368Z

Period
93.85 min
Inclination
53.1600°
Eccentricity
0.0001065
Mean motion
15.34403886 rev/d
Perigee alt
462.0 km
Apogee alt
463.4 km
Semi-major
6,840.8 km
B*
3.5353e-4
RAAN
117.6080°
Arg perigee
104.0367°
Mean anomaly
256.0755°
Rev number
9,321

§ Raw data

STARLINK-328511 62810U 25018E   26264.85288012  .00011588  00000+0  35353-3 0  99912 62810  53.1600 117.6080 0001065 104.0367 256.0755 15.34403886 93217

JSON: /api/v1/satellites/62810 · /tle

For live sub-satellite position, see the globe view (requires WebGL).

§ Visibility from observer

Set your observer location to see the next 7 days of passes ≥ 10°. The values pass through the URL so the page stays shareable.

No JS? Fill the form by hand. The geolocation button needs JavaScript.